ECMWFNIL_925_temp_132.txt.gz
Temp
24 24 24 25 25 25 25 25 25 25 25 25 25 25 25 25 25 25 25 25 24 24 24 24 24 24 24 24 24 24 25 25 25 25 25 25 25 26 26 26 26 26
24 24 24 25 25 24 25 25 25 25 25 25 25 25 25 25 24 24 24 24 24 24 24 24 24 24 24 24 24 24 24 24 25 25 25 25 25 25 26 26 27 26
24 24 24 25 25 25 25 25 25 25 25 25 25 25 25 25 25 24 24 24 24 25 24 24 24 24 24 24 24 24 25 24 25 25 25 25 25 25 26 26 27 27
24 25 25 25 25 25 25 25 25 25 25 26 25 25 25 25 25 24 24 24 24 24 24 24 24 24 24 24 24 24 25 24 25 25 25 25 25 25 26 26 26 27
25 25 25 25 25 25 25 25 25 25 26 26 26 25 25 25 25 25 24 24 24 24 25 24 24 24 24 24 24 24 25 25 25 25 24 25 25 25 26 26 26 26
25 25 25 25 25 25 25 25 25 26 26 26 26 26 25 25 25 25 25 25 25 25 25 25 25 25 25 24 24 24 25 25 25 25 24 25 25 26 26 26 25 25
25 25 25 25 25 25 25 26 25 25 26 26 26 26 26 25 25 25 25 25 25 25 25 25 25 25 25 25 24 24 24 25 25 24 24 25 25 25 26 25 25 25
26 26 25 25 26 26 26 26 26 25 25 26 26 26 26 26 26 26 25 25 25 25 25 25 25 25 25 25 25 25 25 25 25 25 24 25 25 25 25 25 25 25
26 26 26 26 26 26 26 26 26 26 25 25 26 26 26 26 26 26 25 25 25 25 25 25 25 25 25 25 25 25 25 25 26 25 25 25 25 25 25 25 25 25
26 26 26 26 27 27 27 27 27 27 26 26 26 27 26 26 26 26 25 25 25 25 25 25 25 25 25 25 25 25 25 25 25 25 25 25 25 26 26 26 26 26
26 26 27 27 27 28 27 27 27 27 27 27 27 27 27 26 26 26 25 25 25 25 25 25 25 25 25 25 26 25 25 25 25 25 25 25 25 26 26 26 26 26
26 27 27 27 27 28 28 28 28 28 27 27 27 27 27 27 26 26 26 25 25 25 25 25 25 25 25 25 26 26 26 26 26 26 26 26 26 26 26 26 26 26
26 26 26 27 27 27 28 28 28 28 28 27 27 27 27 27 27 26 26 26 25 26 26 26 25 25 25 25 26 26 26 26 26 26 26 26 26 26 27 27 27 26
25 25 26 26 26 26 27 27 27 27 27 27 27 27 27 27 27 27 27 26 26 26 26 26 26 25 25 25 25 26 26 26 26 26 27 27 27 27 27 27 27 27
25 25 25 25 25 26 25 26 26 26 27 27 27 27 27 27 27 27 27 27 27 26 26 26 26 26 26 26 25 26 26 26 26 26 27 27 27 27 27 27 27 28
25 24 24 24 24 25 25 25 25 26 26 26 26 26 26 26 26 27 27 27 27 26 26 26 27 27 26 26 26 26 26 26 26 26 26 26 27 27 27 27 28 28
24 24 24 23 23 24 24 24 24 25 25 25 25 25 25 25 25 26 26 27 27 27 27 27 27 26 26 25 25 26 26 26 26 26 26 26 27 27 27 28 28 28
24 24 24 23 23 23 23 23 23 23 23 24 24 25 24 24 25 25 25 26 26 27 27 27 26 25 25 25 25 25 26 26 26 27 27 27 27 27 27 28 28 28
23 23 23 23 23 23 23 23 22 22 23 23 23 23 24 24 24 25 25 25 26 26 26 25 24 24 25 25 25 25 25 25 26 26 27 27 27 27 27 27 27 27
21 21 22 22 22 22 22 22 22 22 22 22 22 23 23 23 24 24 24 24 25 25 24 23 23 24 24 24 25 25 25 25 25 26 27 27 27 27 27 27 27 27
21 21 21 21 21 21 21 21 21 21 22 22 22 23 23 23 24 24 24 24 24 24 23 22 22 23 23 23 24 24 24 24 24 26 27 27 27 26 26 26 26 26
21 21 21 21 20 20 20 20 21 21 21 21 22 22 22 22 23 23 23 23 23 23 22 21 20 21 22 22 23 23 23 24 24 24 26 26 26 25 25 25 25 25
20 20 20 20 20 19 19 19 20 20 20 20 20 20 20 21 22 22 22 22 22 21 21 20 19 21 21 21 22 22 22 23 23 24 24 25 25 24 24 25 24 24
19 19 19 19 19 19 19 19 19 19 19 19 19 20 20 20 21 21 20 20 20 20 20 19 19 20 20 21 21 21 22 22 23 23 23 24 24 24 24 24 23 22
19 19 19 19 19 18 19 19 19 19 18 18 19 19 19 19 19 19 19 19 18 19 19 18 18 19 20 20 20 21 21 21 22 22 22 23 23 23 23 23 22 21
18 18 18 18 18 18 18 18 18 18 18 18 18 17 17 18 18 18 18 18 18 18 17 17 18 18 19 19 19 20 20 20 20 21 22 22 22 22 22 22 21 21

ECMWFNIL_925_temp_138.txt.gz
Temp
25 25 25 25 25 26 26 25 26 26 26 26 26 26 26 26 26 26 26 26 26 25 25 25 25 25 25 25 26 26 26 26 26 26 26 26 26 27 27 28 28 28
25 25 25 25 26 26 26 26 26 26 26 26 26 26 26 26 26 27 26 26 26 26 25 25 25 25 25 26 26 26 26 26 26 26 26 26 26 27 27 28 28 28
26 26 26 26 26 26 26 26 26 26 26 26 26 26 26 26 26 26 26 26 26 26 26 25 25 25 25 26 25 26 26 26 26 26 26 26 26 27 27 27 28 28
26 26 26 26 26 26 26 26 26 26 26 26 26 26 26 27 26 26 26 26 26 26 26 25 26 25 25 26 25 25 26 26 26 26 26 26 26 26 27 27 28 28
26 26 26 27 27 27 27 27 27 27 27 27 27 27 27 27 26 26 26 26 26 26 26 26 26 26 26 26 25 25 26 26 26 26 26 26 26 26 27 27 28 28
26 26 26 27 27 27 27 27 27 27 27 27 27 27 27 26 26 26 26 26 26 26 26 26 26 26 26 26 26 26 26 26 27 26 26 26 26 27 27 27 27 27
26 26 26 27 27 27 27 27 27 27 27 27 27 27 27 26 26 27 26 26 27 27 27 27 26 26 26 26 26 26 26 26 26 26 26 26 26 26 27 27 27 27
27 27 26 27 27 27 27 27 27 27 27 28 28 27 27 27 27 27 27 27 27 27 27 27 27 27 27 26 26 26 26 26 26 26 26 26 26 26 26 26 27 27
27 27 27 27 27 27 27 27 27 27 27 27 28 28 27 27 27 27 27 27 27 27 27 27 26 26 26 26 26 26 26 26 27 26 26 26 26 26 26 26 26 27
27 27 27 27 27 27 28 27 27 27 27 27 27 27 28 27 27 27 27 27 27 27 26 26 26 26 26 26 26 26 26 26 26 26 26 26 26 26 26 27 27 27
28 28 28 28 28 28 28 28 27 27 27 27 27 27 27 27 27 27 27 27 27 26 26 26 26 26 26 26 26 26 26 26 26 26 26 26 26 26 27 27 27 27
28 28 28 28 28 28 28 28 27 27 27 27 27 27 27 27 27 27 27 26 26 27 26 26 26 26 26 26 26 26 26 26 26 26 26 26 26 27 27 27 27 27
28 28 28 29 29 29 29 29 28 27 27 27 27 27 27 27 27 27 27 26 26 26 26 26 26 26 26 26 26 26 26 26 26 26 26 26 26 26 27 27 27 27
28 28 29 29 29 29 29 29 29 28 27 27 27 27 27 27 27 27 27 27 26 26 26 26 26 26 26 26 26 26 26 26 26 26 26 26 26 26 27 27 27 28
28 28 28 29 29 29 29 29 29 29 28 28 27 27 27 27 27 27 27 27 27 26 26 26 26 26 26 26 26 26 26 26 26 26 26 26 26 27 27 27 27 28
28 28 28 28 28 29 29 29 29 29 29 28 28 28 28 28 28 27 27 27 27 26 26 26 26 26 26 25 25 26 26 26 26 26 26 26 26 26 27 27 27 28
26 26 27 28 28 28 29 29 29 29 29 29 29 28 29 29 29 28 28 28 27 26 26 26 26 26 26 26 26 26 26 26 26 26 26 26 26 26 26 27 27 28
24 23 23 24 25 26 27 27 28 28 28 28 28 29 29 29 28 28 28 28 28 27 26 26 26 26 26 26 26 26 26 26 26 26 26 26 27 27 27 27 27 28
23 22 21 22 24 25 26 26 26 27 27 27 27 27 28 28 28 28 28 28 28 27 26 26 25 25 26 26 26 26 26 26 26 26 26 27 27 27 28 27 27 27
22 22 22 23 25 26 26 26 26 26 26 26 26 26 26 25 25 25 26 26 27 26 25 25 25 24 25 25 25 26 25 25 26 26 26 27 27 27 27 27 26 26
22 22 21 22 24 25 25 25 25 25 25 25 25 25 23 22 22 23 24 24 24 23 23 23 23 23 24 24 24 25 25 25 25 25 26 26 26 26 25 25 25 25
23 22 20 20 23 24 25 24 24 24 24 24 24 23 21 21 22 23 23 23 23 23 22 22 22 22 23 23 24 24 24 25 25 25 25 25 24 24 24 24 24 24
23 22 20 20 22 22 23 23 23 23 22 22 22 21 20 21 22 22 22 23 23 23 22 22 22 22 22 23 23 23 24 24 24 24 24 23 22 22 23 23 23 23
22 22 21 21 21 21 21 22 22 21 21 21 21 21 20 22 22 21 20 21 21 21 21 21 21 21 22 22 22 23 23 23 23 23 22 22 21 21 22 22 22 22
21 21 21 21 20 20 20 21 21 21 20 20 20 20 20 21 21 20 19 19 19 19 20 20 20 20 21 22 22 22 22 22 22 22 21 21 21 21 21 21 21 21
20 20 20 20 20 20 20 20 20 20 20 19 20 19 19 20 20 19 18 18 18 18 18 19 19 19 20 20 21 21 21 21 21 21 20 20 20 20 20 20 19 19

ECMWFNIL_925_temp_141.txt.gz
Temp
25 25 25 25 25 25 25 25 25 25 25 25 25 25 25 25 25 25 25 25 25 25 25 25 25 25 25 25 25 26 26 26 26 26 26 26 26 26 27 27 28 28
25 25 25 25 25 25 25 25 25 25 25 25 25 25 25 25 25 25 25 25 25 25 25 25 25 25 25 25 25 25 25 26 26 26 26 26 26 26 27 27 28 28
25 25 25 25 25 25 25 25 25 25 25 25 26 26 26 26 26 26 26 25 25 25 25 25 25 25 25 25 25 26 25 26 26 26 26 26 26 26 27 27 27 28
25 25 25 25 25 25 25 25 25 25 26 26 26 26 26 26 26 26 26 26 25 25 25 25 25 25 25 25 25 26 25 26 26 26 26 26 26 26 27 27 27 27
25 25 25 25 25 25 25 26 26 26 26 26 26 26 26 26 26 26 26 26 26 25 25 25 25 25 25 25 25 26 25 25 26 26 26 26 26 26 27 27 27 27
25 25 25 25 26 26 26 26 26 26 26 26 26 26 26 26 26 26 26 26 26 26 26 25 25 25 25 25 25 26 26 25 26 26 26 26 26 26 26 27 27 27
25 25 26 26 26 26 26 26 26 26 26 26 26 26 26 26 26 26 26 25 26 26 26 26 25 25 26 25 25 26 26 25 26 26 26 26 26 26 26 26 26 27
25 25 26 26 26 26 26 26 26 26 27 27 27 26 26 26 26 26 26 26 26 26 26 26 26 26 26 26 26 26 26 26 26 26 26 26 26 26 26 26 26 26
25 26 26 26 26 27 27 27 27 27 27 27 27 27 27 26 26 26 26 26 26 26 26 26 26 26 26 26 26 26 26 26 26 26 26 26 26 26 26 26 26 26
26 26 26 26 26 27 27 27 27 27 27 27 27 27 27 27 26 26 26 26 26 27 27 27 26 26 26 26 26 26 26 26 26 26 26 26 26 26 26 26 26 26
26 26 26 26 26 27 27 27 27 27 27 27 27 27 27 27 27 27 27 27 27 27 27 27 26 26 26 26 26 26 26 26 26 26 26 26 26 26 26 26 26 26
26 26 26 26 27 27 27 27 27 27 27 27 27 27 27 27 27 27 27 27 26 26 26 26 26 26 26 26 26 26 26 26 26 26 26 26 26 26 26 26 26 26
27 27 27 27 27 27 27 27 27 27 27 27 27 27 27 27 27 27 27 27 26 26 26 26 26 26 26 26 26 26 26 26 26 26 26 26 26 26 26 26 26 26
27 27 27 27 27 27 28 28 27 27 27 27 27 27 27 27 27 27 27 27 26 26 26 26 26 26 26 26 26 26 26 26 26 26 26 26 26 26 26 26 26 26
28 27 28 28 28 28 28 28 28 27 27 27 27 27 27 27 27 27 27 26 26 26 26 26 26 26 26 26 26 26 26 26 26 26 26 26 26 26 26 26 26 26
28 27 28 28 28 28 28 28 28 28 28 27 27 27 27 27 27 27 27 27 26 26 26 26 26 26 26 26 26 26 26 26 25 25 25 25 25 26 26 26 27 27
27 27 27 27 27 27 28 28 28 28 28 27 27 27 27 27 27 27 27 27 27 27 26 26 26 26 26 26 26 26 25 25 25 25 25 26 26 26 26 27 27 27
27 27 27 27 27 27 27 27 27 27 28 27 27 27 27 27 27 27 27 27 27 26 26 26 26 26 26 26 26 26 25 25 25 25 26 26 26 26 26 26 26 26
27 27 27 27 27 27 27 27 27 27 27 27 27 27 27 27 27 26 26 26 26 26 26 26 26 26 26 26 26 26 25 25 25 25 26 26 26 26 26 26 26 26
26 26 27 27 26 26 26 27 27 27 27 27 27 27 27 26 26 26 26 26 26 26 26 25 25 25 25 26 26 26 25 25 25 25 25 26 26 25 25 25 25 25
25 25 25 25 25 26 26 26 26 26 26 26 26 26 26 26 25 26 25 25 25 25 25 25 25 25 25 25 25 25 25 25 25 25 25 25 25 25 24 24 24 24
24 23 23 23 24 25 25 25 25 24 24 25 25 25 25 25 25 25 24 24 24 24 25 25 25 24 24 24 25 24 24 24 24 25 24 24 24 24 23 23 23 23
22 23 23 22 22 23 24 24 23 23 23 24 24 24 24 23 24 24 23 23 23 23 23 24 24 24 24 24 24 24 24 24 24 24 23 23 23 23 23 23 22 22
21 23 23 21 21 22 22 22 22 22 22 23 24 24 23 22 22 22 22 22 22 22 22 22 23 23 23 23 23 23 24 24 23 23 23 22 22 22 22 22 21 21
21 22 22 21 21 20 20 21 21 21 21 22 23 24 22 20 20 21 21 20 20 20 20 21 21 21 21 22 22 23 23 23 23 23 22 21 21 21 20 20 20 21
20 20 20 20 20 20 19 20 20 21 22 23 23 22 19 19 19 20 19 19 19 19 19 19 20 20 20 21 22 22 23 23 22 22 22 21 21 20 20 19 20 20

ECMWFNIL_925_temp_144.txt.gz
Temp
25 25 25 25 25 25 25 25 25 25 25 25 24 24 24 24 24 24 24 24 24 24 25 25 25 25 25 25 25 25 25 25 25 26 26 26 26 26 27 27 27 28
25 25 25 25 25 25 25 25 25 25 25 25 25 25 25 24 24 24 24 24 24 24 25 25 25 25 25 25 25 25 25 25 25 25 26 26 26 26 26 27 27 27
25 25 25 25 25 25 25 25 25 25 25 25 25 25 25 25 25 25 24 25 25 25 25 25 25 25 25 25 25 25 25 25 25 25 25 26 26 26 26 27 27 27
25 25 25 25 25 25 25 25 25 25 25 25 25 25 25 25 25 25 25 25 25 25 25 25 25 25 25 25 25 25 25 25 25 25 25 25 26 26 26 26 26 27
25 25 25 25 25 25 25 25 25 24 25 25 25 25 25 25 25 25 25 25 25 25 25 25 25 25 25 25 25 25 25 25 25 25 25 25 25 26 26 26 26 26
25 25 25 25 25 25 25 25 25 25 25 25 25 25 25 25 25 25 25 25 25 25 25 25 25 25 25 25 25 25 25 25 25 25 25 25 25 26 26 26 26 26
25 25 25 25 25 25 25 25 25 25 25 25 25 25 25 25 25 25 25 25 25 25 25 25 25 25 25 25 25 24 25 25 25 25 25 25 25 26 26 26 26 26
25 25 25 25 25 25 25 25 25 25 25 25 25 25 26 26 26 26 25 25 25 25 25 25 25 25 25 25 25 25 25 25 25 25 25 26 25 25 26 26 26 26
25 25 25 25 25 25 25 25 25 25 25 25 26 26 26 26 26 26 26 25 25 25 25 25 25 25 25 25 25 25 25 25 25 25 25 25 25 25 26 26 25 26
25 25 25 25 25 25 25 25 26 26 26 26 26 26 26 26 26 26 26 26 25 25 25 25 25 25 25 25 25 25 25 25 25 25 25 25 25 25 26 25 25 26
25 25 25 25 25 25 25 26 26 26 26 26 26 26 26 26 26 26 26 26 26 25 26 25 25 25 25 25 25 25 25 25 25 25 25 25 25 25 25 25 25 26
25 25 25 25 25 25 26 26 26 26 26 26 26 26 26 26 26 26 26 26 26 26 26 26 26 26 26 26 26 26 26 25 25 25 25 25 25 25 25 25 25 26
25 25 25 25 25 25 26 26 26 26 26 26 26 26 26 26 26 26 26 26 26 26 26 26 26 26 26 26 26 26 26 26 25 25 25 25 25 25 25 25 26 26
25 25 25 25 26 26 26 26 26 26 26 26 26 26 26 26 26 26 26 26 26 26 26 26 26 26 26 26 26 26 26 26 26 25 25 25 25 25 25 25 26 26
26 26 26 26 26 26 26 26 26 26 26 26 26 26 27 27 27 26 26 26 26 26 26 26 26 26 26 26 25 25 25 25 25 25 25 25 25 25 25 26 26 26
26 26 26 26 26 26 26 26 26 27 26 26 26 26 26 27 27 27 27 26 26 26 26 26 26 26 26 25 25 25 25 25 25 25 25 25 25 25 25 26 26 26
26 26 26 26 26 26 27 27 27 27 27 26 26 27 26 27 27 27 27 27 26 26 26 26 26 26 25 25 25 25 25 25 25 25 25 25 25 25 25 26 26 25
26 26 26 26 26 26 27 27 27 27 27 27 27 27 27 27 27 27 27 27 26 26 26 26 26 26 26 25 25 25 25 25 25 25 25 25 25 25 25 26 25 25
26 26 26 26 26 26 27 27 27 27 27 27 27 27 26 26 26 26 26 26 26 26 26 26 26 26 26 26 25 25 25 25 25 25 25 25 25 25 25 26 25 25
26 26 26 26 26 26 26 27 27 27 27 27 26 26 26 26 26 26 26 26 26 26 26 26 26 25 26 25 25 25 25 25 25 24 25 25 25 25 25 25 25 25
25 26 26 26 26 26 26 26 26 26 26 26 26 26 26 26 26 26 26 26 26 26 26 26 25 25 25 25 25 25 25 25 24 24 24 24 24 25 25 25 25 25
24 25 25 26 25 25 25 25 25 25 25 25 25 25 26 26 26 25 25 25 25 25 26 26 25 25 25 25 25 25 25 25 24 24 24 24 24 24 25 24 24 24
23 23 23 24 24 23 23 23 24 24 24 24 24 25 25 25 25 25 25 25 25 25 25 25 25 25 25 25 25 25 24 24 24 24 24 24 24 24 24 24 24 24
23 23 22 21 21 21 21 22 23 23 23 23 23 24 24 24 24 24 23 24 24 24 24 24 24 24 24 24 24 24 23 23 24 24 23 23 23 23 23 23 22 22
22 22 21 20 19 19 21 23 23 23 23 23 23 23 23 23 23 23 22 22 22 22 22 23 23 23 23 24 23 23 23 23 23 23 23 23 22 22 21 21 21 21
20 20 20 19 19 20 21 22 22 22 22 21 21 22 22 21 21 21 21 21 21 21 21 21 22 22 23 23 23 23 22 22 23 23 23 22 22 21 21 21 21 21